EW0742 Weather Reports


time (UTC)temp
F
wind
direction
speed
knots
gust
knots
rain 1hr
in
rain 24hr
in
rain mn
in
humidity
%
barometer
mb
20260504081600 45 170 0.0 4.3 0.00 0.00 0.00 71 1006.6
20260504044531 41 149 0.0 0.0 0.00 0.00 0.00 74 1007.2
20260504043026 40 154 0.0 0.0 0.00 0.00 0.00 78 1007.3
20260504041522 39 153 0.0 0.0 0.00 0.00 0.00 79 1007.5
20260504040020 39 159 0.0 0.0 0.00 0.00 0.00 82 1007.3
20260504034535 39 158 0.0 0.0 0.00 0.00 0.00 81 1007.5
20260504033026 39 332 0.0 0.0 0.00 0.00 0.00 81 1007.5
20260504031519 39 332 0.0 0.0 0.00 0.00 0.00 73 1007.4
20260504030025 41 332 0.0 0.0 0.00 0.00 0.00 71 1007.5
20260504024519 41 142 0.0 0.0 0.00 0.00 0.00 70 1007.6
20260504023017 42 144 0.0 0.0 0.00 0.00 0.00 70 1007.7
20260504021517 42 142 0.0 0.0 0.00 0.00 0.00 67 1007.9
20260504020016 42 152 0.0 1.7 0.00 0.01 0.00 67 1007.7
20260504014519 41 148 0.0 0.9 0.00 0.01 0.00 72 1007.8
20260504013016 40 335 0.0 0.0 0.00 0.01 0.00 76 1007.8
20260504011515 40 347 0.0 0.0 0.00 0.01 0.00 74 1007.8
20260504010014 41 347 0.0 0.0 0.00 0.02 0.00 73 1007.6
20260504004515 42 347 0.0 0.0 0.00 0.02 0.00 69 1007.5
20260504003013 43 353 0.0 0.0 0.00 0.02 0.00 66 1007.4
20260504001513 45 353 0.0 0.0 0.00 0.02 0.00 60 1007.4
20260504000012 46 352 0.0 0.0 0.00 0.03 0.00 57 1007.3
20260503234512 48 148 0.0 0.0 0.00 0.03 0.00 55 1007.3
20260503233011 49 333 0.0 0.0 0.00 0.03 0.00 53 1007.1
20260503231516 49 145 0.0 0.0 0.00 0.03 0.00 52 1007.1
20260503230012 49 145 0.0 0.9 0.00 0.04 0.00 53 1007.1
20260503224509 50 145 0.0 0.0 0.00 0.04 0.00 52 1007.2
20260503223015 50 158 0.0 0.0 0.00 0.04 0.00 52 1007.2
20260503221506 50 142 0.0 0.0 0.00 0.04 0.00 51 1007.3
20260503220011 50 158 0.0 0.0 0.00 0.04 0.00 51 1007.3
20260503214505 50 146 0.0 0.9 0.00 0.04 0.00 49 1007.3
20260503213003 50 18 0.0 0.0 0.00 0.04 0.00 50 1007.3
20260503211504 50 316 0.0 0.0 0.00 0.04 0.00 55 1007.2
20260503210003 50 167 0.0 0.0 0.00 0.06 0.00 49 1007.3
20260503204501 50 308 0.0 0.0 0.00 0.06 0.00 50 1007.3
20260503203115 51 304 0.0 0.0 0.00 0.06 0.00 50 1007.3
20260503201559 50 335 0.0 0.0 0.00 0.06 0.00 50 1007.6
20260503200101 50 153 0.0 0.0 0.00 0.06 0.00 49 1007.6
20260503194556 49 148 0.0 0.0 0.00 0.06 0.00 54 1007.8
20260503193054 48 316 0.0 0.0 0.00 0.06 0.00 57 1008.0
20260503191603 48 316 0.0 0.0 0.00 0.06 0.00 54 1008.1
20260503190055 49 319 0.0 0.9 0.00 0.06 0.00 54 1008.2
20260503184606 49 345 0.0 2.6 0.00 0.06 0.00 55 1008.2
20260503183048 48 333 0.0 1.7 0.00 0.06 0.00 55 1008.4
20260503181545 49 117 0.0 0.9 0.00 0.06 0.00 55 1008.5
20260503180045 49 141 0.0 0.0 0.00 0.06 0.00 58 1008.5
20260503174555 50 351 0.0 0.0 0.00 0.06 0.00 57 1008.6
20260503173041 47 153 0.0 0.9 0.00 0.06 0.00 59 1008.7
20260503171539 47 322 0.0 0.0 0.00 0.06 0.00 59 1008.9